Regional Weather Roundup
Issued by NWS

Home | Current Version | Previous Version | Graphics & Text | Print | Product List | Glossary On
Versions: 1 2 3 4 5 6 7 8 9 10 11 12 13 14 15 16 17 18 19 20 21 22 23 24 25 26 27 28 29 30 31 32 33 34 35 36 37 38 39 40 41 42 43 44 45 46 47 48 49 50
000
ASUS43 KMPX 231001
RWRMN
WEATHER ROUNDUP FOR MINNESOTA
NATIONAL WEATHER SERVICE TWIN CITIES/CHANHASSEN MN
500 AM CDT WED AUG 23 2017


NOTE: "FAIR" INDICATES FEW OR NO CLOUDS BELOW 12,000 FEET WITH NO
SIGNIFICANT WEATHER AND/OR OBSTRUCTIONS TO VISIBILITY. N/A MEANS
CURRENT SKY AND/OR WEATHER CONDITIONS ARE NOT AVAILABLE.

MNZ060>063-068>070-231100-
   Twin Cities Metro

CITY           SKY/WX    TMP DP  RH WIND       PRES   REMARKS
TWIN CITIES    CLEAR     59  49  69 CALM      30.08R
ST PAUL        CLEAR     56  53  90 MISG      30.08S
CRYSTAL        CLEAR     54  47  77 NW3       30.06S
BLAINE         CLEAR     54  48  82 CALM      30.07S
LAKEVILLE      CLEAR     52  50  93 W3        30.08S
EDEN PRAIRIE   CLEAR     56  51  84 W3        30.07S
SOUTH ST PAUL  CLEAR     55  50  85 CALM      30.08R
LAKE ELMO      FAIR      52  50  93 CALM      30.08S
$$
MNZ001>005-007-008-013>017-022>024-027-028-231100-
   Northwest Minnesota

CITY           SKY/WX    TMP DP  RH WIND       PRES   REMARKS
BEMIDJI        CLEAR     46  45  93 W3        30.09R
HALLOCK        FOG       43  41  93 CALM      30.09R VSB 3/4
ROSEAU         HAZE      45  39  81 CALM      30.08S VSB 1/4
WARROAD        FOG       45  41  87 CALM      30.08S VSB 3/4
THIEF RVR FALL FOG       46  46 100 SW3       30.10S VSB 3/4
CROOKSTON      CLEAR     46  43  87 CALM      30.10S
FOSSTON        CLEAR     43  39  87 CALM      30.10S FOG
DETROIT LAKES  CLEAR     54  48  82 CALM      30.11S
MOORHEAD       CLEAR     46  45  93 CALM      30.11S
PARK RAPIDS    CLEAR     47  43  86 CALM      30.09S
MAHNOMEN       FAIR      45  44  95 SW3       30.10S
$$
MNZ006-009>011-018-025>026-231100-
   North Central Minnesota

CITY           SKY/WX    TMP DP  RH WIND       PRES   REMARKS
BAUDETTE       CLEAR     47  46  97 W3        30.07S
FLAG ISLAND      N/A     54  52  94 NW3       30.06S
INTL FALLS     CLOUDY    51  49  92 NW3       30.05S
WASKISH        CLEAR     45  43  93 CALM      30.08R
BIG FORK       PTCLDY    41  39  93 CALM      30.07R FOG
LONGVILLE      CLEAR     46  46 100 CALM      30.07S FOG
GRAND RAPIDS   CLEAR     50  48  93 CALM      30.08S
CRANE LAKE     MOCLDY    50  48  93 CALM      30.06R
ORR            CLOUDY    52  48  87 NW3       30.03S
COOK           CLOUDY    48  48 100 CALM      30.05S
WALKER         FAIR      48  47  97 CALM      30.08F
$$
MNZ012-019>021-037-231100-
   Northeast Minnesota

CITY           SKY/WX    TMP DP  RH WIND       PRES   REMARKS
DULUTH         PTCLDY    49  49 100 NW6       30.04R
ELY            CLOUDY    50  50 100 CALM      30.03S
HIBBING        CLEAR     44  44 100 N5        30.05S
EVELETH        PTCLDY    53  48  84 NW3       30.05S
DULUTH HARBOR  PTCLDY    57  54  88 NW10      30.03R
TWO HARBORS    CLEAR     54  48  82 NW3       30.00R
SILVER BAY     CLEAR     54  52  94 CALM      29.98S
GRAND MARAIS     N/A     51  49  92 CALM      29.97R
$$
MNZ029>031-032-039>041-046>048-054>057-064-231100-
   West Central Minnesota

CITY           SKY/WX    TMP DP  RH WIND       PRES   REMARKS
FERGUS FALLS   CLEAR     50  46  87 CALM      30.11S
WHEATON        CLEAR     50  45  81 W3        30.13S
MORRIS         CLEAR     48  46  93 W5        30.10S
ALEXANDRIA     CLEAR     52  49  89 W6        30.12
ELBOW LAKE     FAIR      49  48  94 CALM      30.12R
WADENA         CLEAR     46  46 100 CALM      30.09S
GLENWOOD       CLEAR     52  50  93 W5        30.11S
APPLETON       CLEAR     50  46  87 CALM      30.11S
BENSON         CLEAR     45  43  93 CALM      30.12S
ORTONVILLE     CLEAR     52  46  82 MISG      30.11S
MADISON        CLEAR     52  52 100 CALM      30.12S
WILLMAR        FAIR      50  48  93 CALM      30.12S
$$
MNZ033>034-036-042>043-049>051-058-059-231100-
   Central Minnesota

CITY           SKY/WX    TMP DP  RH WIND       PRES   REMARKS
ST CLOUD       CLEAR     50  48  93 NW3       30.09R
SAUK CENTRE    FAIR      49  47  93 W3        30.10S
PAYNESVILLE    CLEAR     46  46 100 W6        30.11S
AITKIN         FOG       43  41  93 CALM      30.06S VSB 1/2
PINE RIVER     CLEAR     48  45  87 NW3       30.11S
BRAINERD       CLEAR     47  46  97 CALM      30.08S
STAPLES        CLEAR     46  45  93 CALM      30.09S
LONG PRAIRIE   FAIR      50  48  93 CALM      30.10S
LITTLE FALLS   CLEAR     45  43  93 CALM      30.09S
LITCHFIELD     CLEAR     55  52  88 W3        30.11R
BUFFALO        CLEAR     54  49  84 CALM      30.09S
MAPLE LAKE     CLEAR     55  51  86 W3        30.10R
HUTCHINSON     CLEAR     51  50  95 CALM      30.11S
$$
MNZ037-044-045-052-053-231100-
   East Central Minnesota

CITY           SKY/WX    TMP DP  RH WIND       PRES   REMARKS
PRINCETON      CLEAR     48  46  93 CALM      30.08S
MORA           CLEAR     48  46  93 CALM      30.09R
CAMBRIDGE      CLEAR     52  46  82 CALM      30.08R
RUSH CITY      MOCLDY    47  46  96 W3        30.07R
MOOSE LAKE     CLEAR     50  46  87 CALM      30.04S
HINCKLEY       FAIR      52  50  93 NW3       30.06S
CLOQUET        CLEAR     50  46  87 NW6       30.05R
MCGREGOR       CLEAR     50  46  87 CALM      30.07S
$$
MNZ071>073-080-081-089-090-097-098-231100-
   Southwest Minnesota

CITY           SKY/WX    TMP DP  RH WIND       PRES   REMARKS
MONTEVIDEO     CLEAR     52  48  87 NW7       30.12S
GRANITE FALLS  CLEAR     50  48  93 W6        30.13S
CANBY          CLEAR     56  48  74 CALM      30.14S
MARSHALL       CLEAR     52  48  86 SW3       30.13S
REDWOOD FALLS  CLEAR     53  47  79 W7        30.11S
OLIVIA         CLEAR     50  46  87 W3        30.11S
PIPESTONE      CLEAR     50  46  87 CALM      30.15F
WINDOM         CLEAR     52  48  87 SW3       30.14S
WORTHINGTON    CLEAR     50  47  89 SW5       30.15F
JACKSON        CLEAR     50  46  87 CALM      30.14S
TRACY          CLEAR     55  50  81 SW8       30.14S
SLAYTON        CLEAR     52  43  71 W5        30.16S
$$
MNZ065>067-074>077-082>085-091>093-231100-
   South Central Minnesota

CITY           SKY/WX    TMP DP  RH WIND       PRES   REMARKS
MANKATO        CLEAR     52  49  89 W6        30.11S
NEW ULM        CLEAR     50  46  87 W6        30.11S
ST JAMES       CLEAR     52  48  87 CALM      30.13S
FAIRMONT       CLEAR     54  49  83 W5        30.13S
GLENCOE        CLEAR     53  52  97 W3        30.09S
FARIBAULT      CLEAR     54  50  87 CALM      30.09S
OWATONNA       CLEAR     50  48  93 CALM      30.10S
WASECA         CLEAR     46  45  93 CALM      30.11S
ALBERT LEA     CLEAR     57  52  82 W5        30.11S
$$
MNZ078>079-086>088-094>096-231100-
   Southeast Minnesota

CITY           SKY/WX    TMP DP  RH WIND       PRES   REMARKS
ROCHESTER      CLEAR     51  49  92 W8        30.09S
RED WING       CLEAR     52  48  87 CALM      30.06S
STANTON        CLEAR     51  49  92 S3        30.07S
DODGE CENTER   CLEAR     52  48  87 W6        30.09S
WINONA         CLEAR     54  50  87 NW3       30.06S
AUSTIN         CLEAR     54  48  82 NW6       30.09F
PRESTON        CLEAR     51  47  87 W8        30.09S
$$
ABBREVIATIONS USED IN REMARKS
   TC - TEMPERATURES IN CELSIUS
  WCI - WIND CHILL INDEX
   HX - HEAT INDEX
  VSB - VISIBILITY
$$




USA.gov is the U.S. government's official web portal to all federal, state and local government web resources and services.